Location: Napa Soda Springs
(38.3907°N, 122.2794°W)
Time: 07:59:02
(UTC+00:00)

CZ-2C R/B - Pass Details

Date: 29 October 2020
Orbit: 667 x 785 km, 98.2° (Epoch: 02 December)

Event Time Altitude Azimuth Distance (km) Brightness Sun altitude
Rises 13:10:19 0° 357° (N) 3,189 5.6 -16.7°
Reaches altitude 10° 13:13:06 10° 342° (NNW) 2,239 4.7 -16.2°
Enters shadow 13:16:05 21° 306° (NW) 1,606 3.7 -15.6°
